Wind_Speed
7 5 2 4 8 11 13 7 10 13 12 14 13 11 12 11 9 8 8 7 6 2 4 10 12 14 17 20 23 25 27 28 27 29 31 33 33 35 36 35 35 36 37 38
3 5 1 9 13 9 11 15 9 9 17 21 15 7 9 10 10 8 7 6 6 7 7 8 13 17 21 23 24 25 27 27 28 28 27 25 25 28 27 27 31 32 28 29
1 5 7 9 18 18 13 12 11 16 7 18 17 11 9 8 8 8 8 8 6 5 6 11 15 15 16 17 21 23 23 24 25 26 25 28 29 30 30 31 27 27 30 25
3 5 7 6 10 22 19 14 8 6 10 16 20 16 12 7 11 10 8 6 4 6 11 14 15 15 17 19 20 22 22 18 21 24 26 28 27 25 28 28 26 26 24 26
4 6 7 5 3 6 12 11 14 5 10 20 20 16 11 13 11 9 7 7 9 10 10 12 14 18 19 19 20 19 20 22 24 26 29 26 26 27 29 29 24 25 28 25
4 5 9 2 9 5 6 7 5 7 12 19 11 5 4 9 9 8 11 10 10 11 12 16 18 19 17 18 18 17 20 23 26 24 23 28 27 30 30 27 29 23 24 28
4 3 6 4 8 8 8 5 3 12 13 12 6 6 8 9 8 12 12 10 11 14 13 15 17 18 16 15 14 22 23 23 24 26 26 25 27 26 25 26 32 31 27 26
3 3 11 10 5 10 5 4 13 13 13 16 13 11 10 10 8 8 9 13 14 14 14 15 17 18 15 13 20 22 24 24 24 24 24 23 25 27 25 25 22 23 23 24
7 4 3 5 6 7 8 11 7 10 11 12 11 11 10 8 8 7 13 14 14 13 12 13 15 16 15 17 21 21 23 25 25 25 25 26 24 24 23 21 19 21 20 21
4 4 4 6 6 7 10 9 9 10 9 10 10 9 8 7 6 6 13 13 11 10 9 12 15 17 16 18 21 21 22 24 26 24 25 24 24 22 21 19 18 18 19 20
3 3 7 9 11 11 9 10 11 9 9 8 9 7 7 6 7 11 12 9 7 6 7 10 12 14 16 17 19 22 23 23 22 22 23 24 22 22 21 21 20 21 22 22
4 6 5 10 10 12 12 11 11 11 7 6 6 7 7 6 12 12 9 6 4 4 5 7 10 13 15 17 18 20 21 21 22 22 22 21 20 23 20 19 20 22 23 23
5 10 7 14 15 12 13 12 9 10 8 8 6 9 8 6 12 12 8 4 1 2 4 6 9 13 14 17 18 19 20 21 21 20 20 20 20 18 20 24 22 21 23 23
6 8 7 8 8 13 12 12 16 13 11 10 10 11 11 11 12 11 8 5 3 4 5 7 10 12 13 16 14 17 20 20 21 21 22 21 20 20 20 18 18 20 25 21
9 7 7 14 13 11 14 12 10 7 6 6 13 12 13 11 10 10 8 7 4 5 8 8 12 13 13 14 13 15 18 21 23 22 22 23 22 19 19 19 18 18 20 20
7 11 12 12 10 12 13 11 9 7 7 7 8 13 15 15 13 11 13 12 9 10 9 12 15 16 13 16 16 16 20 23 23 23 22 21 21 18 17 16 17 16 14 15
6 8 9 8 8 10 11 8 8 7 6 5 9 14 14 15 12 13 17 15 13 14 14 16 19 16 13 17 17 16 18 26 24 24 22 21 22 21 17 15 17 16 11 10
7 7 10 10 7 7 8 8 7 10 8 10 6 7 11 15 10 16 16 14 14 17 20 19 21 14 14 15 16 13 19 26 22 23 23 22 22 23 19 17 16 17 11 7
9 9 9 9 8 8 7 6 7 11 12 14 13 15 18 19 21 22 20 17 18 19 29 19 13 15 14 14 13 16 22 21 22 24 23 24 22 22 21 17 14 15 12 8
8 7 10 8 13 9 5 4 3 3 4 6 9 10 13 19 22 21 21 22 24 27 25 20 20 19 16 13 14 17 22 20 22 22 22 25 22 21 22 21 17 16 15 12
9 9 9 9 6 9 7 5 4 5 9 9 12 16 19 23 23 23 15 11 25 28 25 21 22 21 14 13 16 20 19 20 22 24 23 22 23 22 21 22 18 15 16 16
8 10 9 9 8 7 9 8 7 7 8 9 11 14 15 17 18 19 24 24 26 24 22 22 21 15 12 13 17 17 18 20 22 23 25 24 22 23 22 23 20 18 18 19
9 10 11 10 7 4 2 3 3 3 5 7 10 12 12 13 14 11 9 17 20 22 21 17 11 10 13 14 17 17 18 20 21 23 23 25 25 24 23 23 24 19 20 21
10 10 7 7 7 7 4 7 5 4 5 6 8 8 10 10 12 11 6 7 6 6 8 10 11 11 15 19 19 18 19 21 23 22 24 26 27 26 25 24 25 21 21 23
11 7 6 7 4 4 10 8 7 6 6 7 7 8 8 9 7 12 15 15 13 12 13 13 15 18 19 19 18 20 22 23 21 23 25 26 26 24 25 25 26 25 22 23
7 7 9 14 9 9 10 7 7 5 7 6 8 10 11 11 12 14 16 19 19 19 19 19 19 18 18 20 21 20 21 24 25 26 24 26 24 27 26 25 27 28 24 24
7 8 8 10 10 9 7 4 1 1 3 7 9 11 14 16 16 16 17 18 21 23 23 23 22 22 23 24 23 23 23 22 24 25 27 26 23 24 24 26 27 30 27 25
Wind_Direction
217 72 44 164 209 232 232 197 192 202 180 171 172 163 131 134 139 135 113 102 93 84 22 35 11 354 344 336 331 327 320 314 313 313 307 302 299 301 299 296 299 299 294 290
357 356 49 287 273 269 277 247 236 199 209 173 151 99 137 147 123 112 105 90 59 73 47 13 3 3 351 339 331 325 317 315 315 316 320 329 343 344 330 328 329 319 312 302
301 44 35 289 233 238 245 252 223 231 206 127 133 184 146 116 111 109 86 85 73 56 26 7 348 342 341 345 344 343 348 343 335 335 335 332 329 327 325 325 321 314 330 322
105 91 227 253 187 206 221 231 252 217 129 142 136 134 120 132 109 98 94 84 66 33 13 1 355 355 3 358 350 342 333 345 344 334 325 319 316 317 318 315 319 313 310 325
170 203 317 259 181 171 188 240 225 167 141 124 120 107 85 103 102 104 88 62 47 28 10 5 23 9 359 351 349 351 348 338 332 325 318 316 312 311 309 308 310 311 311 306
162 192 211 269 184 154 78 264 233 178 137 138 133 118 158 109 102 90 77 68 52 32 31 27 10 3 5 0 353 346 337 326 323 321 318 315 307 312 308 309 308 307 305 303
166 219 284 215 117 110 159 239 104 109 110 108 92 118 144 111 94 90 80 56 50 54 38 17 9 6 357 350 355 339 328 325 323 320 316 314 312 319 319 317 312 309 304 305
156 202 252 153 105 164 171 49 98 95 102 104 108 106 102 92 83 77 68 69 55 47 27 9 358 351 339 351 339 331 329 324 316 314 317 316 310 316 316 313 308 307 307 308
188 214 256 153 124 122 117 112 98 102 104 108 106 101 98 93 86 80 83 67 52 38 12 356 353 350 344 336 330 323 329 322 322 325 317 321 318 312 316 319 314 310 309 305
140 224 145 122 101 105 116 106 101 98 99 100 102 99 100 101 98 95 81 66 46 23 359 357 356 340 329 322 327 326 322 322 324 323 326 327 328 323 320 314 311 310 308 305
182 172 111 144 137 129 113 113 106 94 97 102 105 113 120 116 107 101 87 70 50 30 15 359 342 333 337 340 341 330 324 318 319 322 321 323 323 320 317 319 316 306 304 300
197 186 126 153 143 132 126 122 120 118 109 115 122 133 123 117 118 113 105 89 57 25 355 331 331 334 346 344 340 332 323 324 321 322 320 319 317 317 322 318 321 319 314 308
161 156 146 149 156 155 144 139 136 129 134 135 139 133 133 126 129 129 123 122 182 298 304 304 321 341 343 339 339 337 327 322 319 321 322 320 320 317 317 320 324 326 326 322
146 132 134 136 137 122 123 120 121 125 131 139 143 148 153 141 146 141 156 182 213 253 278 293 311 321 344 340 335 333 334 330 327 317 321 315 316 311 310 307 314 320 331 332
130 108 128 126 128 131 124 121 123 132 146 163 177 173 164 151 163 177 192 207 230 269 277 287 293 302 333 335 327 325 333 329 328 326 326 321 307 307 305 304 306 310 322 332
114 127 119 129 137 140 135 139 146 170 181 188 182 178 181 180 183 205 213 212 220 255 289 295 289 294 309 329 316 307 324 333 331 323 318 320 317 300 305 305 307 310 317 331
122 126 128 131 138 148 157 155 165 177 189 193 192 188 178 177 187 204 207 217 244 265 282 290 290 292 299 321 318 307 321 330 329 326 316 323 318 312 300 302 303 307 305 326
138 137 146 150 153 147 151 160 170 176 186 205 191 188 186 181 202 216 232 246 249 264 270 280 291 267 287 310 316 306 322 328 326 320 318 316 318 313 302 295 300 304 283 301
133 139 138 147 147 149 152 147 164 190 198 195 190 196 209 214 223 232 242 243 250 256 272 288 259 246 272 299 291 296 322 325 318 317 315 316 312 311 306 292 290 296 269 262
136 131 128 136 142 141 136 129 162 176 199 205 220 221 221 232 238 241 243 229 245 259 274 273 268 247 268 283 271 297 321 320 314 313 312 312 311 308 310 297 284 288 263 243
134 127 121 124 128 133 162 193 212 216 252 251 229 230 237 252 255 254 239 243 263 275 275 269 261 245 249 261 285 306 316 314 314 313 311 309 309 307 308 303 285 270 260 239
91 93 92 87 84 76 58 47 34 8 345 315 294 285 273 266 267 260 260 258 273 273 263 256 256 234 254 281 298 308 311 307 307 310 310 311 309 308 309 307 292 269 257 246
108 111 111 105 108 109 49 5 333 307 298 297 293 287 274 272 274 266 279 280 276 269 258 237 225 253 293 298 302 308 305 301 300 304 309 311 310 306 303 307 297 278 256 239
95 86 90 99 102 95 70 76 69 62 46 49 34 360 346 330 305 294 333 48 48 9 337 317 308 299 291 298 302 301 299 296 297 301 306 308 308 306 304 297 305 281 266 242
104 105 121 136 140 152 157 154 118 73 35 13 4 10 1 355 357 333 333 332 329 320 310 302 293 293 294 297 296 295 296 298 297 301 301 304 306 309 307 308 308 293 270 245
154 191 189 181 185 156 137 109 87 41 357 1 340 330 331 333 328 321 316 312 309 308 306 304 301 297 293 293 295 295 298 299 299 297 296 301 302 311 308 305 307 307 277 255
175 130 108 119 136 139 138 127 109 270 326 326 318 323 315 311 313 311 307 304 301 301 299 298 297 294 294 294 291 292 297 301 303 302 300 298 299 309 310 307 311 316 293 259
Height
695 695 701 703 708 711 716 724 737 730 732 737 738 741 750 756 761 766 771 775 777 780 783 786 786 785 784 783 781 780 778 776 773 770 766 764 760 757 754 750 746 742 738 735
716 705 705 712 709 714 718 710 712 715 716 713 727 739 750 753 758 766 769 771 774 780 782 782 782 782 781 781 780 778 775 773 770 767 764 761 757 753 749 745 742 738 732 729
721 715 727 735 715 708 707 702 701 714 710 708 736 744 748 755 758 763 768 774 777 779 780 779 779 779 779 779 778 776 773 772 769 766 762 759 756 752 748 744 740 737 735 730
726 735 726 695 684 691 701 698 699 696 702 708 728 741 748 753 758 764 769 772 774 774 775 777 778 778 778 776 775 773 770 768 767 764 761 757 753 748 746 741 736 733 730 726
727 727 708 694 694 694 696 698 693 701 701 712 726 738 754 753 756 762 765 766 769 773 777 777 778 778 776 774 772 771 769 766 764 760 755 751 748 743 741 736 731 727 724 720
729 727 728 693 686 685 691 710 690 691 702 712 719 749 758 751 754 759 763 767 770 773 775 776 776 775 774 773 771 769 768 764 760 756 753 748 743 739 735 731 726 722 719 718
722 721 713 688 687 688 713 710 693 698 707 715 728 737 745 747 752 758 762 766 769 771 773 775 775 773 773 772 770 768 764 760 757 754 748 743 738 734 730 726 722 717 714 710
722 723 711 686 693 700 709 708 704 709 716 722 727 733 739 744 750 756 762 766 768 770 771 773 773 771 770 769 768 765 761 756 753 748 744 739 734 729 725 721 717 713 708 704
702 701 688 688 694 700 703 708 714 715 720 722 728 735 740 747 752 757 762 766 768 770 771 772 770 770 769 768 765 761 756 754 748 743 739 734 729 724 721 717 714 709 705 700
698 688 687 694 698 701 706 712 718 720 723 726 732 736 743 749 753 758 762 765 768 769 770 770 769 769 768 766 762 758 754 750 745 739 734 729 726 722 719 715 712 708 703 698
690 681 685 693 697 702 707 713 718 723 728 734 736 740 745 749 754 758 761 764 767 768 768 768 768 767 765 763 759 758 753 747 742 737 732 726 723 719 717 713 710 705 701 696
693 682 686 691 696 699 706 712 718 725 731 737 739 743 746 750 754 757 760 762 764 765 766 766 766 763 761 760 757 757 753 748 742 736 729 725 720 715 714 710 706 702 697 693
674 673 681 686 691 698 705 711 716 722 729 735 740 744 746 749 752 754 757 759 761 762 763 763 763 760 758 757 757 753 751 746 739 734 728 723 719 715 709 704 701 697 693 688
667 672 680 684 695 698 703 710 717 722 728 734 739 741 744 749 751 751 754 757 758 759 759 760 760 758 756 754 754 752 747 743 738 731 726 720 717 713 709 703 697 692 689 685
668 672 678 685 692 700 705 711 719 724 727 734 737 738 742 746 748 748 751 754 756 756 756 754 755 753 755 751 750 748 744 739 734 728 723 718 713 709 705 701 696 691 686 682
668 673 681 688 694 701 705 712 718 723 726 729 732 735 736 740 743 747 749 750 752 751 752 752 750 750 751 747 745 743 739 735 730 725 719 714 710 705 701 698 693 690 686 682
674 682 685 691 696 701 705 710 716 719 723 726 728 730 734 736 739 742 744 746 746 744 747 747 744 746 744 743 741 738 735 730 726 721 717 713 707 702 698 695 691 687 685 682
673 677 682 689 695 700 704 707 712 715 720 723 726 728 730 732 735 736 739 741 742 741 740 741 739 739 739 738 736 733 730 726 721 718 714 709 705 700 695 692 688 685 683 682
672 678 683 688 693 698 703 706 710 712 716 720 722 724 725 728 728 729 732 735 736 735 730 733 733 733 733 732 731 728 725 721 717 714 710 706 701 697 692 688 685 682 681 680
673 677 683 688 693 698 702 704 707 712 715 718 720 722 723 723 723 725 726 726 725 724 725 726 727 727 726 726 724 722 719 716 713 709 705 702 698 693 689 684 681 679 677 677
675 679 684 690 695 698 702 706 709 712 714 715 717 718 716 716 718 718 719 719 715 716 717 717 718 718 719 718 717 715 713 710 707 704 701 698 694 690 685 681 677 675 674 673
679 684 691 695 699 703 705 708 710 712 713 714 715 715 714 714 714 712 711 711 709 710 710 711 712 712 712 711 710 709 707 705 702 700 697 694 691 687 682 678 673 670 669 669
683 687 692 696 700 703 705 707 709 710 712 713 713 713 711 710 708 707 705 704 702 702 703 703 705 706 706 705 704 702 700 699 697 695 692 690 687 683 679 674 670 666 664 663
683 688 693 696 698 701 705 707 709 710 711 711 710 708 707 705 703 703 701 700 701 701 701 701 701 701 701 700 697 696 695 693 692 690 687 685 682 678 674 669 665 661 659 657
686 689 692 696 699 702 704 706 706 706 707 706 706 705 705 704 704 703 702 701 700 699 698 697 697 696 695 693 691 690 689 687 686 684 681 679 676 673 669 665 660 656 653 651
688 691 692 695 697 699 701 701 702 703 703 704 704 703 703 702 701 700 699 698 697 695 694 693 692 690 689 688 686 684 683 681 679 677 675 673 670 667 664 660 655 651 647 645
688 689 691 693 694 695 696 698 699 700 701 701 701 701 700 699 698 697 696 695 693 691 689 687 686 684 683 681 679 678 676 674 673 671 669 666 664 661 658 655 651 646 641 638